Grazzanise, Italy

8:39 AM CEST on May 24, 2018 (GMT +0200)
Grazzanise Mil

Weather History for LIRM - November, 2013

Change the Weather History Date:

Friday, November 1, 2013

  Actual Average (LIRN) Record (LIRN)
Temperature  
Mean Temperature 66 °F -  
Max Temperature 76 °F 63 °F 84 °F (2004)
Min Temperature 55 °F 45 °F 35 °F (2004)
Cooling Degree Days 2    
Growing Degree Days 16 (Base 50)    
Moisture  
Dew Point 60 °F    
Average Humidity 85    
Maximum Humidity 100    
Minimum Humidity 53    
Precipitation  
Precipitation 0.00 in 0.18 in - ()
Sea Level Pressure  
Sea Level Pressure 30.14 in    
Wind  
Wind Speed 5 mph ()    
Max Wind Speed 14 mph    
Max Gust Speed -    
Visibility 6.9 miles    
Events      
Averages and records for this station are not official NWS values.
T = Trace of Precipitation, MM = Missing Value Source: Averaged Metar Reports

Daily Weather History Graph

Daily Weather History Graph

Search for Another Location

Airport or City:

Astronomy

Nov. 01, 2013 Rise Set
Actual Time 6:34 AM CET 4:59 PM CET
Civil Twilight 6:06 AM CET 5:27 PM CET
Nautical Twilight 5:33 AM CET 6:00 PM CET
Astronomical Twilight 5:01 AM CET 6:32 PM CET
Moon 4:07 AM CET (11/1) 3:42 PM CET (11/1)
Length of Visible Light 11h 21m
Length of Day
10h 24m
Waning Crescent, 5% of the Moon is Illuminated
Nov 1
Waning Crescent
Nov 3
New
Nov 10
First Quarter
Nov 17
Full
Nov 25
Last Quarter

Hourly Weather History & Observations

Time (CET) Temp. Dew Point Humidity Pressure Visibility Wind Dir Wind Speed Gust Speed Precip Events Conditions
12:55 AM 60.8 °F 57.2 °F 88% 30.15 in - NNE 8.1 mph - N/A   Clear
1:00 AM 61 °F 58 °F 86% 30.16 in 6 mi NNE 8.1 mph - -  
1:55 AM 60.8 °F 59.0 °F 94% 30.15 in - NE 8.1 mph - N/A   Clear
2:55 AM 59.0 °F 57.2 °F 94% 30.15 in - North 5.8 mph - N/A   Clear
3:55 AM 59.0 °F 55.4 °F 88% 30.15 in - NNE 5.8 mph - N/A   Clear
4:00 AM 58 °F 56 °F 90% 30.16 in 6 mi NNE 5.8 mph - -  
4:55 AM 57.2 °F 55.4 °F 94% 30.12 in - North 5.8 mph - N/A   Clear
5:55 AM 59.0 °F 57.2 °F 94% 30.12 in - NNE 8.1 mph - N/A   Clear
6:55 AM 57.2 °F 55.4 °F 94% 30.12 in - NNE 5.8 mph - N/A   Clear
7:55 AM 60.8 °F 57.2 °F 88% 30.15 in 6.2 mi NNE 8.1 mph - N/A   Partly Cloudy
8:55 AM 66.2 °F 60.8 °F 83% 30.15 in 6.2 mi NE 9.2 mph - N/A   Partly Cloudy
9:55 AM 69.8 °F 60.8 °F 73% 30.18 in 6.2 mi NE 10.4 mph - N/A   Partly Cloudy
10:00 AM 69 °F 62 °F 71% 30.18 in 11 mi NE 10.4 mph - -   Scattered Clouds
10:55 AM 73.4 °F 62.6 °F 69% 30.15 in 6.2 mi ENE 5.8 mph - N/A   Partly Cloudy
11:55 AM 75.2 °F 62.6 °F 65% 30.15 in 6.2 mi SSE 1.2 mph - N/A   Partly Cloudy
12:55 PM 75.2 °F 62.6 °F 65% 30.15 in 6.2 mi WSW 13.8 mph - N/A   Scattered Clouds
1:00 PM 76 °F 62 °F 53% 30.16 in 12 mi WSW 13.8 mph - -   Partly Cloudy
1:55 PM 69.8 °F 64.4 °F 83% 30.15 in 6.2 mi WSW 6.9 mph - N/A   Scattered Clouds
2:55 PM 71.6 °F 64.4 °F 78% 30.12 in 6.2 mi SSW 2.3 mph - N/A   Mostly Cloudy
3:55 PM 69.8 °F 66.2 °F 88% 30.12 in 6.2 mi SSW 3.5 mph - N/A   Mostly Cloudy
4:00 PM 71 °F 65 °F 78% 30.14 in 12 mi SSW 3.5 mph - -   Partly Cloudy
4:55 PM 68.0 °F 64.4 °F 88% 30.12 in 6.2 mi SSE 2.3 mph - N/A   Mostly Cloudy
5:55 PM 68.0 °F 64.4 °F 88% 30.12 in 6.2 mi Calm Calm - N/A   Mostly Cloudy
6:55 PM 64.4 °F 62.6 °F 94% 30.12 in 6.2 mi Calm Calm - N/A   Scattered Clouds
7:00 PM 64 °F 63 °F 95% 30.14 in 7 mi Calm Calm - -   Partly Cloudy
7:55 PM 60.8 °F 60.8 °F 100% 30.12 in 6.2 mi North 4.6 mph - N/A   Scattered Clouds
8:55 PM 59.0 °F 59.0 °F 100% 30.12 in 6.2 mi Calm Calm - N/A   Scattered Clouds
9:55 PM 57.2 °F 55.4 °F 94% 30.15 in 6.2 mi Calm Calm - N/A   Scattered Clouds
10:00 PM 58 °F 55 °F 87% 30.15 in 6 mi Calm Calm - -   Partly Cloudy
10:55 PM 57.2 °F 53.6 °F 88% 30.15 in 6.2 mi Calm Calm - N/A   Partly Cloudy
11:55 PM 55.4 °F 53.6 °F 94% 30.15 in 6.2 mi North 2.3 mph - N/A   Partly Cloudy